User: anonymous   Login
Location: Caltech
(34.1382°N, 118.1253°W)
Time: 06:49:45
(UTC-07:00)
Language:

FO-29 - Orbit

View from above orbital plane
View from above orbital plane
View from above satellite
View from above satellite

Ground track
Ground track

The orbit data is extracted from the following two-line orbital elements,

1 24278U 96046B   18171.85369133 -.00000038 +00000-0 -61256-5 0  9992
2 24278 098.5174 010.1054 0351409 101.3880 262.6946 13.53084044078487
Epoch (UTC): 20 June 2018 20:29:18
Eccentricity: 0.0351409
inclination: 98.5174°
perigee height: 799 km
apogee height: 1322 km
right ascension of ascending node: 10.1054°
argument of perigee: 101.3880°
revolutions per day: 13.53084044
mean anomaly at epoch: 262.6946°
orbit number at epoch: 7848

The dashed part of the orbit path shows where the satellite is in the earth's shadow,  

DLR